Location: Unspecified
(0.0000°N, 0.0000°E)
Time: 09:23:34
(UTC+00:00)

Transit 4A - Pass Details

Date: 15 December 2018
Orbit: 868 x 977 km, 66.8° (Epoch: 18 January)

Event Time Altitude Azimuth Distance (km) Brightness Sun altitude
Rises 14:52:07 0° 311° (NW) 3,623 11.2 41.2°
Reaches altitude 10° 14:55:22 10° 294° (WNW) 2,694 10.8 40.5°
Maximum altitude 14:59:46 20° 250° (WSW) 2,090 11.3 39.5°
Drops below altitude 10° 15:04:13 10° 205° (SSW) 2,723 11.2 38.6°
Sets 15:07:33 0° 188° (S) 3,673 11.5 37.8°
